Fayetteville, AR

8:41 AM CST on January 22, 2018 (GMT -0600)
Drake

Weather History for KFYV - July, 2013

Change the Weather History Date:

Thursday, July 11, 2013

  Actual Average Record
Temperature  
Mean Temperature 82 °F 78 °F  
Max Temperature 96 °F 88 °F 103 °F (1954)
Min Temperature 68 °F 67 °F 52 °F (1961)
Cooling Degree Days 17 12  
Month to date cooling degree days 108 130  
Year to date cooling degree days 534 488  
Since 1 June cooling degree days 398 375  
Growing Degree Days 32 (Base 50)    
Moisture  
Dew Point 67 °F    
Average Humidity 67    
Maximum Humidity 100    
Minimum Humidity 33    
Precipitation  
Precipitation 0.00 in 0.12 in 0.50 in (1998)
Month to date precipitation 0.05 1.42  
Year to date precipitation 25.52 26.61  
Sea Level Pressure  
Sea Level Pressure 29.96 in    
Wind  
Wind Speed 3 mph (ENE)    
Max Wind Speed 10 mph    
Max Gust Speed 25 mph    
Visibility 10 miles    
Events      
T = Trace of Precipitation, MM = Missing Value Source: NWS Daily Summary

Daily Weather History Graph

Daily Weather History Graph

Search for Another Location

Airport or City:

Trip Planner

Search our weather history database for the weather conditions in past years. The results will help you decide how hot, cold, wet, or windy it might be!

Date:

Astronomy

Jul. 11, 2013 Rise Set
Actual Time 6:09 AM CDT 8:35 PM CDT
Civil Twilight 5:39 AM CDT 9:04 PM CDT
Nautical Twilight 5:02 AM CDT 9:41 PM CDT
Astronomical Twilight 4:22 AM CDT 10:21 PM CDT
Moon 9:20 AM CDT (7/11) 10:24 PM CDT (7/11)
Length of Visible Light 15h 25m
Length of Day
14h 26m
Waxing Crescent, 11% of the Moon is Illuminated
Jul 11
Waxing Crescent
Jul 15
First Quarter
Jul 22
Full
Jul 29
Last Quarter
Aug 6
New

Hourly Weather History & Observations

Time (CDT) Temp. Heat Index Dew Point Humidity Pressure Visibility Wind Dir Wind Speed Gust Speed Precip Events Conditions
12:53 AM 71.1 °F - 69.1 °F 93% 29.96 in 10.0 mi Calm Calm - N/A   Clear
1:53 AM 70.0 °F - 68.0 °F 93% 29.98 in 10.0 mi Calm Calm - N/A   Clear
2:53 AM 70.0 °F - 68.0 °F 93% 29.99 in 10.0 mi Calm Calm - N/A   Clear
3:53 AM 69.1 °F - 68.0 °F 96% 29.99 in 10.0 mi South 3.5 mph - N/A   Clear
4:53 AM 68.0 °F - 68.0 °F 100% 29.97 in 10.0 mi South 3.5 mph - N/A   Clear
5:53 AM 68.0 °F - 66.9 °F 96% 29.98 in 10.0 mi South 3.5 mph - N/A   Clear
6:53 AM 69.1 °F - 68.0 °F 96% 29.98 in 10.0 mi Calm Calm - N/A   Clear
7:53 AM 73.9 °F - 69.1 °F 85% 29.98 in 10.0 mi Calm Calm - N/A   Clear
8:53 AM 81.0 °F 84.4 °F 70.0 °F 69% 29.99 in 10.0 mi Calm Calm - N/A   Clear
9:53 AM 84.9 °F 89.4 °F 70.0 °F 61% 29.98 in 10.0 mi Calm Calm - N/A   Clear
10:53 AM 87.1 °F 92.0 °F 70.0 °F 57% 29.98 in 10.0 mi ENE 5.8 mph - N/A   Clear
11:53 AM 89.1 °F 93.7 °F 69.1 °F 52% 29.99 in 10.0 mi Variable 3.5 mph - N/A   Clear
12:53 PM 93.0 °F 97.4 °F 68.0 °F 44% 29.97 in 10.0 mi North 4.6 mph - N/A   Partly Cloudy
1:53 PM 93.0 °F 97.9 °F 69.1 °F 45% 29.97 in 10.0 mi NE 4.6 mph - N/A   Partly Cloudy
2:53 PM 93.9 °F 96.1 °F 64.9 °F 38% 29.96 in 10.0 mi Variable 4.6 mph - N/A   Clear
3:53 PM 96.1 °F 98.3 °F 64.0 °F 35% 29.94 in 10.0 mi ENE 8.1 mph - N/A   Partly Cloudy
4:53 PM 91.9 °F 92.9 °F 63.0 °F 38% 29.93 in 10.0 mi NNE 3.5 mph - N/A   Partly Cloudy
5:53 PM 93.9 °F 94.0 °F 61.0 °F 33% 29.91 in 10.0 mi North 4.6 mph - N/A   Clear
6:53 PM 93.0 °F 93.8 °F 62.1 °F 36% 29.90 in 10.0 mi ENE 5.8 mph - N/A   Clear
7:53 PM 89.1 °F 90.3 °F 64.0 °F 43% 29.91 in 10.0 mi East 5.8 mph - N/A   Clear
8:53 PM 82.9 °F 84.6 °F 64.9 °F 54% 29.92 in 10.0 mi Calm Calm - N/A   Clear
9:53 PM 75.9 °F - 66.0 °F 71% 29.94 in 10.0 mi Calm Calm - N/A   Clear
10:53 PM 73.9 °F - 66.0 °F 76% 29.95 in 10.0 mi Calm Calm - N/A   Clear
11:53 PM 71.1 °F - 66.0 °F 84% 29.96 in 10.0 mi Calm Calm - N/A   Clear